Time,TemperatureF,DewpointF,PressureIn,WindDirection,WindDirectionDegrees,WindSpeedMPH,WindSpeedGustMPH,Humidity,HourlyPrecipIn,Conditions,Clouds,dailyrainin,SolarRadiationWatts/m^2,SoftwareType,DateUTC
2013-01-22 00:12:00,20.0,18.0,-100.00,NNE,27,3.0,5.0,92,-99.99,,,0.00,0.000000,,2013-01-22 08:12:00,
2013-01-22 01:12:00,20.0,19.0,-100.00,North,353,4.0,5.0,93,-99.99,,,0.00,0.000000,,2013-01-22 09:12:00,
2013-01-22 02:12:00,20.0,19.0,-100.00,NE,52,2.0,4.0,93,-99.99,,,0.00,0.000000,,2013-01-22 10:12:00,
2013-01-22 03:12:00,20.0,19.0,-100.00,ENE,63,2.0,4.0,93,-99.99,,,0.00,0.000000,,2013-01-22 11:12:00,
2013-01-22 04:12:00,20.0,19.0,-100.00,North,9,2.0,4.0,93,-99.99,,,0.00,0.000000,,2013-01-22 12:12:00,
2013-01-22 05:13:00,21.0,19.0,-100.00,NE,53,2.0,4.0,93,-99.99,,,-99.99,0.000000,,2013-01-22 13:13:00,
2013-01-22 06:12:00,20.0,19.0,-100.00,NE,42,1.0,3.0,92,-99.99,,,0.00,0.000000,,2013-01-22 14:12:00,
2013-01-22 07:12:00,20.0,18.0,-100.00,ENE,74,1.0,3.0,92,-99.99,,,0.00,0.000000,,2013-01-22 15:12:00,
2013-01-22 08:13:00,20.0,18.0,-100.00,North,5,1.0,2.0,92,-99.99,,,0.00,0.120000,,2013-01-22 16:13:00,
2013-01-22 09:12:00,20.0,18.0,-100.00,NE,55,3.0,5.0,92,-99.99,,,0.00,11.040000,,2013-01-22 17:12:00,
2013-01-22 10:12:00,20.0,18.0,-100.00,North,0,2.0,4.0,92,-99.99,,,0.00,40.790001,,2013-01-22 18:12:00,
2013-01-22 12:12:00,21.0,19.0,-100.00,ENE,57,2.0,4.0,92,-99.99,,,0.00,132.610001,,2013-01-22 20:12:00,
2013-01-22 13:13:00,22.0,20.0,-100.00,NE,36,2.0,4.0,93,-99.99,,,-99.99,152.949997,,2013-01-22 21:13:00,
2013-01-22 14:12:00,21.0,20.0,-100.00,NE,48,2.0,4.0,93,-99.99,,,0.00,93.089996,,2013-01-22 22:12:00,
2013-01-22 15:12:00,22.0,20.0,-100.00,NNE,20,2.0,4.0,93,-99.99,,,0.00,100.650002,,2013-01-22 23:12:00,
2013-01-22 16:12:00,23.0,22.0,-100.00,NE,56,2.0,4.0,93,-99.99,,,0.00,151.779999,,2013-01-23 00:12:00,
2013-01-22 17:13:00,23.0,22.0,-100.00,NNW,341,2.0,3.0,94,-99.99,,,0.00,27.780001,,2013-01-23 01:13:00,
2013-01-22 18:12:00,23.0,22.0,-100.00,ENE,67,0.0,1.0,94,-99.99,,,0.00,1.050000,,2013-01-23 02:12:00,
2013-01-22 19:12:00,23.0,22.0,-100.00,NNE,29,1.0,2.0,94,-99.99,,,0.00,0.000000,,2013-01-23 03:12:00,
2013-01-22 20:12:00,23.0,22.0,-100.00,North,9,1.0,3.0,94,-99.99,,,0.00,0.000000,,2013-01-23 04:12:00,
2013-01-22 21:12:00,22.0,20.0,-100.00,NNW,334,1.0,2.0,93,-99.99,,,0.00,0.000000,,2013-01-23 05:12:00,
2013-01-22 22:12:00,22.0,20.0,-100.00,ENE,70,0.0,1.0,93,-99.99,,,0.00,0.000000,,2013-01-23 06:12:00,
2013-01-22 23:12:00,23.0,21.0,-100.00,NE,55,2.0,3.0,94,-99.99,,,0.00,0.000000,,2013-01-23 07:12:00,